Погода в Винодельненском

Россия / Ставропольский край     45°49′05″N   43°02′35″E
темп.,
°C
ветер,
м/с
пор.,
м/с
влажн.,
%
обл.,
%
осадки,
мм/ч
давл.,
гПа
погр.,
м
16 апреля, пт
пт1600:00+10зсз34845 0.0 101864
03:00+9зюз228730 0.0 101812
06:00+10з2284100 0.0 101915
09:00+15с2264100 0.0 1019396
12:00+18в33528 0.0 10191201
15:00+20в454428 0.0 10181950
18:00+18в4857100 0.0 1017209
21:00+12с588979 1.7 1020213
17 апреля, сб
сб1700:00+10в1196100 0.7 101912
03:00+10сз1194100 0.9 101916
06:00+11ссз2496100 1.3 1019133
09:00+11зсз2796100 6.4 1021444
12:00+11з4795100 3.9 1022409
15:00+12зсз4689100 6.6 1022497
18:00+10з3690100 1.1 1023291
21:00+9з2491100 1.1 102391
18 апреля, вс
вс1800:00+9з2388100 0.0 102379
03:00+9сз1187100 0.0 102224
06:00+9в2387100 0.0 102270
09:00+11юв3478100 0.0 1021269
12:00+12в3483100 2.8 1019470
15:00+11ссв3591100 4.0 1018262
18:00+11всв4797100 5.4 1019285
21:00+10в3797100 5.9 1019281
19 апреля, пн
пн1900:00+11вюв3696100 0.1 1018227
03:00+11вюв3697100 0.1 1018179
06:00+11вюв4797100 0.0 1017221
09:00+14юв4690100 0.5 1017323
12:00+17ююв347598 0.2 1016541
15:00+19вюв3468100 0.3 1015564
18:00+17юв4677100 0.1 1014121
21:00+16вюв71566100 0.1 1012364
20 апреля, вт
вт2000:00+15юв81863100 0.0 1010517
03:00+14юв91964100 0.0 1009592
06:00+13юв102165100 0.0 1007561
09:00+15юв102065100 0.1 1006640
12:00+16вюв5771100 0.4 1009463
15:00+19юв3762100 0.4 1007887
18:00+11зсз81587100 1.1 1014681
21:00+10ссв1393100 6.2 1016182